Change the Weather History Date:

Tuesday, February 12, 2013

  Actual Average (KAZE) Record (KAZE)
Temperature  
Mean Temperature 58 °F -  
Max Temperature 62 °F 68 °F 91 °F (2015)
Min Temperature 53 °F 46 °F 35 °F (2014)
Degree Days  
Heating Degree Days 8    
Growing Degree Days 8 (Base 50)    
Moisture  
Dew Point 56 °F    
Average Humidity 92    
Maximum Humidity 100    
Minimum Humidity 77    
Precipitation  
Precipitation 0.00 in - - ()
Sea Level Pressure  
Sea Level Pressure 30.01 in    
Wind  
Wind Speed 4 mph (NE)    
Max Wind Speed 13 mph    
Max Gust Speed 20 mph    
Visibility 7 miles    
Events Rain , Thunderstorm    
Averages and records for this station are not official NWS values.
T = Trace of Precipitation, MM = Missing Value Source: NWS Daily Summary

Daily Weather History Graph

Daily Weather History Graph

Search for Another Location

Airport or City:

Trip Planner

Search our weather history database for the weather conditions in past years. The results will help you decide how hot, cold, wet, or windy it might be!

Date:

Astronomy

Feb. 12, 2013 Rise Set
Actual Time 7:14 AM EST 6:13 PM EST
Civil Twilight 6:49 AM EST 6:38 PM EST
Nautical Twilight 6:20 AM EST 7:07 PM EST
Astronomical Twilight 5:51 AM EST 7:35 PM EST
Moon 8:23 AM EST (2/12) 8:58 PM EST (2/12)
Length of Visible Light 11h 49m
Length of Day
10h 58m
Waxing Crescent, 7% of the Moon is Illuminated
Feb 12
Waxing Crescent
Feb 17
First Quarter
Feb 25
Full
Mar 4
Last Quarter
Mar 11
New

Hourly Weather History & Observations

Time (EST) Temp. Dew Point Humidity Pressure Visibility Wind Dir Wind Speed Gust Speed Precip Events Conditions
12:15 AM 60.8 °F 60.8 °F 100% 30.10 in 7.0 mi Calm Calm - N/A Rain Rain
12:35 AM 60.8 °F 59.0 °F 94% 30.09 in 5.0 mi Calm Calm - N/A Rain Rain
1:15 AM 60.8 °F 59.0 °F 94% 30.07 in 7.0 mi Calm Calm - N/A Rain Rain
1:35 AM 60.8 °F 59.0 °F 94% 30.07 in 7.0 mi Calm Calm - N/A Rain Light Rain
1:55 AM 60.8 °F 59.0 °F 94% 30.07 in 5.0 mi Calm Calm - N/A Rain Light Rain
2:15 AM 60.8 °F 59.0 °F 94% 30.06 in 1.0 mi Calm Calm - N/A   Overcast
2:35 AM 60.8 °F 59.0 °F 94% 30.09 in 2.0 mi West 4.6 mph - N/A   Overcast
2:55 AM 60.8 °F 59.0 °F 94% 30.10 in 4.0 mi NW 4.6 mph - N/A Rain Light Rain
3:15 AM 60.8 °F 59.0 °F 94% 30.07 in 7.0 mi Calm Calm - N/A Rain Light Rain
3:35 AM 60.8 °F 59.0 °F 94% 30.07 in 7.0 mi Calm Calm - N/A   Overcast
3:55 AM 60.8 °F 59.0 °F 94% 30.05 in 5.0 mi SSE 3.5 mph - N/A   Overcast
4:15 AM 60.8 °F 59.0 °F 94% 30.05 in 4.0 mi Calm Calm - N/A   Overcast
4:35 AM 60.8 °F 59.0 °F 94% 30.06 in 5.0 mi Calm Calm - N/A   Overcast
4:55 AM 60.8 °F 59.0 °F 94% 30.06 in 0.8 mi North 5.8 mph - N/A   Overcast
5:15 AM 59.0 °F 59.0 °F 100% 30.06 in 0.8 mi North 6.9 mph - N/A   Overcast
5:35 AM 59.0 °F 59.0 °F 100% 30.07 in 10.0 mi North 6.9 mph - N/A   Overcast
5:55 AM 59.0 °F 59.0 °F 100% 30.07 in 10.0 mi North 5.8 mph - N/A   Overcast
6:15 AM 59.0 °F 59.0 °F 100% 30.07 in 7.0 mi North 3.5 mph - N/A   Overcast
6:35 AM 59.0 °F 59.0 °F 100% 30.07 in 7.0 mi NNW 3.5 mph - N/A Thunderstorm Overcast
6:55 AM 59.0 °F 59.0 °F 100% 30.08 in 10.0 mi Calm Calm - N/A   Overcast
7:15 AM 59.0 °F 59.0 °F 100% 30.08 in 10.0 mi NNW 4.6 mph - N/A   Overcast
7:55 AM 59.0 °F 55.4 °F 88% 30.12 in 5.0 mi NNW 11.5 mph - N/A Rain Rain
8:15 AM 55.4 °F 51.8 °F 88% 30.12 in 7.0 mi NNW 12.7 mph 19.6 mph N/A   Light Drizzle
8:35 AM 55.4 °F 51.8 °F 88% 30.11 in 10.0 mi NE 4.6 mph - N/A   Overcast
8:55 AM 55.4 °F 51.8 °F 88% 30.12 in 10.0 mi Calm Calm - N/A   Overcast
9:15 AM 55.4 °F 51.8 °F 88% 30.11 in 10.0 mi North 4.6 mph - N/A   Overcast
9:35 AM 55.4 °F 51.8 °F 88% 30.11 in 10.0 mi North 8.1 mph - N/A   Overcast
9:55 AM 53.6 °F 51.8 °F 94% 30.12 in 10.0 mi NNE 9.2 mph - N/A   Overcast
10:15 AM 53.6 °F 51.8 °F 94% 30.12 in 10.0 mi North 9.2 mph - N/A   Overcast
10:35 AM 53.6 °F 51.8 °F 94% 30.12 in 10.0 mi North 6.9 mph - N/A   Overcast
10:55 AM 53.6 °F 51.8 °F 94% 30.11 in 10.0 mi NNE 8.1 mph - N/A   Overcast
11:15 AM 55.4 °F 51.8 °F 88% 30.09 in 10.0 mi NNE 5.8 mph - N/A   Overcast
11:35 AM 57.2 °F 51.8 °F 82% 30.10 in 10.0 mi ENE 5.8 mph - N/A   Overcast
11:55 AM 59.0 °F 51.8 °F 77% 30.08 in 10.0 mi East 3.5 mph - N/A   Overcast
12:15 PM 59.0 °F 51.8 °F 77% 30.06 in 10.0 mi ESE 5.8 mph - N/A   Overcast
12:35 PM 60.8 °F 53.6 °F 77% 30.04 in 10.0 mi East 4.6 mph - N/A   Overcast
12:55 PM 60.8 °F 53.6 °F 77% 30.03 in 10.0 mi East 5.8 mph - N/A   Mostly Cloudy
1:15 PM 62.6 °F 55.4 °F 77% 30.03 in 10.0 mi SE 4.6 mph - N/A   Overcast
1:35 PM 60.8 °F 53.6 °F 77% 30.03 in 10.0 mi Calm Calm - N/A   Overcast
1:55 PM 62.6 °F 55.4 °F 77% 30.00 in 10.0 mi NE 5.8 mph - N/A   Overcast
2:15 PM 60.8 °F 55.4 °F 82% 30.00 in 10.0 mi ENE 5.8 mph - N/A   Overcast
2:35 PM 60.8 °F 55.4 °F 82% 30.02 in 2.0 mi WSW 4.6 mph - N/A Rain , Thunderstorm Heavy Thunderstorms and Rain
2:55 PM 59.0 °F 57.2 °F 94% 30.00 in 5.0 mi Calm Calm - N/A Rain Rain
3:15 PM 59.0 °F 57.2 °F 94% 29.99 in 10.0 mi Calm Calm - N/A Rain , Thunderstorm Light Thunderstorms and Rain
3:35 PM 59.0 °F 57.2 °F 94% 29.96 in 3.0 mi ESE 3.5 mph - N/A Rain , Thunderstorm Light Thunderstorms and Rain
3:55 PM 59.0 °F 57.2 °F 94% 29.96 in 7.0 mi SE 3.5 mph - N/A   Drizzle
4:15 PM 59.0 °F 57.2 °F 94% 29.97 in 0.5 mi East 3.5 mph - N/A Rain , Thunderstorm Heavy Thunderstorms and Rain
4:35 PM 59.0 °F 57.2 °F 94% 29.95 in 4.0 mi East 8.1 mph - N/A Rain , Thunderstorm Heavy Thunderstorms and Rain
4:55 PM 59.0 °F 57.2 °F 94% 29.94 in 7.0 mi NNE 8.1 mph - N/A Rain Rain
5:15 PM 59.0 °F 57.2 °F 94% 29.93 in 2.5 mi NE 9.2 mph - N/A Rain Heavy Rain
5:35 PM 59.0 °F 57.2 °F 94% 29.94 in 3.0 mi ENE 6.9 mph - N/A Rain Rain
5:55 PM 59.0 °F 57.2 °F 94% 29.94 in 3.0 mi ENE 3.5 mph - N/A Rain Heavy Rain
6:15 PM 59.0 °F 57.2 °F 94% 29.92 in 10.0 mi East 8.1 mph - N/A Rain Light Rain
6:35 PM 59.0 °F 57.2 °F 94% 29.92 in 7.0 mi East 9.2 mph - N/A Rain , Thunderstorm Light Thunderstorms and Rain
6:55 PM 59.0 °F 57.2 °F 94% 29.90 in 7.0 mi ENE 9.2 mph - N/A   Overcast
7:15 PM 59.0 °F 57.2 °F 94% 29.91 in 5.0 mi East 8.1 mph - N/A Rain Light Rain
7:35 PM 59.0 °F 57.2 °F 94% 29.89 in 5.0 mi East 11.5 mph - N/A Rain Heavy Rain
7:55 PM 59.0 °F 57.2 °F 94% 29.90 in 7.0 mi East 9.2 mph - N/A Rain Rain
8:15 PM 59.0 °F 57.2 °F 94% 29.88 in 7.0 mi East 10.4 mph - N/A Rain , Thunderstorm Thunderstorms and Rain
8:35 PM 59.0 °F 57.2 °F 94% 29.87 in 5.0 mi East 11.5 mph - N/A Rain , Thunderstorm Heavy Thunderstorms and Rain
9:15 PM 59.0 °F 57.2 °F 94% 29.86 in 7.0 mi East 9.2 mph - N/A Rain Rain
9:35 PM 59.0 °F 57.2 °F 94% 29.88 in 7.0 mi NE 3.5 mph - N/A Rain Rain
9:55 PM 59.0 °F 57.2 °F 94% 29.89 in 10.0 mi NNE 4.6 mph - N/A Rain , Thunderstorm Light Thunderstorms and Rain
10:15 PM 59.0 °F 57.2 °F 94% 29.87 in 7.0 mi ENE 5.8 mph - N/A Rain , Thunderstorm Thunderstorms and Rain
10:35 PM 59.0 °F 57.2 °F 94% 29.84 in 10.0 mi East 9.2 mph - N/A   Overcast
10:55 PM 59.0 °F 57.2 °F 94% 29.84 in 10.0 mi East 6.9 mph - N/A Rain Rain
11:15 PM 59.0 °F 57.2 °F 94% 29.83 in 7.0 mi Calm Calm - N/A Rain Rain
11:55 PM 59.0 °F 57.2 °F 94% 29.84 in 5.0 mi NNE 3.5 mph - N/A Rain Rain